When you browse on this site, cookies collect data to enhance your experience and personalize the content and advertising you see.
Visit our Privacy Policy to learn more. By continuing to use the site, you agree to this use of cookies and data.
  • In Hungary
  • List of Countries
  • For 7 days
  • Water Temperature
  • Satellite Maps
  • Weather Map
  • News
  • Weather Widgets
  • user-avatar
    Login

    Hourly Weather Ghent

    Today, 22 January, Tuesday

    Time Temperature Precipitation Wind Pressure Humidity
    00:00 -4°C° 0 mm 4 mps 761 mmHg 59%
    01:00 -4°C° 0 mm 5 mps 760 mmHg 57%
    02:00 -4°C° 0 mm 5 mps 759 mmHg 56%
    03:00 -4°C° 0 mm 6 mps 757 mmHg 54%
    04:00 -4°C° 0 mm 6 mps 756 mmHg 53%
    05:00 -4°C° 0 mm 7 mps 755 mmHg 52%
    06:00 -4°C° 0 mm 7 mps 755 mmHg 51%
    07:00 -6°C° 0.3 mm 7 mps 754 mmHg 60%
    08:00 -6°C° 0.3 mm 7 mps 754 mmHg 69%
    09:00 -6°C° 0.3 mm 8 mps 753 mmHg 78%
    10:00 -6°C° 0.6 mm 7 mps 753 mmHg 81%
    11:00 -6°C° 0.6 mm 7 mps 752 mmHg 84%
    12:00 -4°C° 0.6 mm 6 mps 752 mmHg 88%
    13:00 -4°C° 0.1 mm 6 mps 752 mmHg 88%
    14:00 -2°C° 0.1 mm 5 mps 751 mmHg 89%
    15:00 -2°C° 0.1 mm 4 mps 751 mmHg 90%
    16:00 -2°C° 0 mm 4 mps 750 mmHg 92%
    17:00 -2°C° 0 mm 4 mps 750 mmHg 93%
    18:00 -2°C° 0 mm 3 mps 749 mmHg 95%
    19:00 -1°C° 0 mm 3 mps 749 mmHg 94%
    20:00 -1°C° 0 mm 3 mps 749 mmHg 94%
    21:00 -1°C° 0 mm 3 mps 748 mmHg 94%
    22:00 -1°C° 0 mm 3 mps 748 mmHg 94%
    23:00 -1°C° 0 mm 3 mps 747 mmHg 93%

    Tomorrow, 23 January, Wednesday

    Time Temperature Precipitation Wind Pressure Humidity
    00:00 -1°C° 0 mm 3 mps 747 mmHg 93%
    01:00 -1°C° 0.1 mm 3 mps 747 mmHg 93%
    02:00 -1°C° 0.1 mm 3 mps 746 mmHg 92%
    03:00 -3°C° 0.1 mm 4 mps 746 mmHg 92%
    04:00 -3°C° 0.1 mm 4 mps 746 mmHg 92%
    05:00 -3°C° 0.1 mm 4 mps 746 mmHg 92%
    06:00 -3°C° 0.1 mm 4 mps 746 mmHg 92%
    07:00 -3°C° 0 mm 4 mps 746 mmHg 91%
    08:00 -3°C° 0 mm 4 mps 747 mmHg 90%
    09:00 -3°C° 0 mm 4 mps 748 mmHg 89%
    10:00 -2°C° 0 mm 4 mps 748 mmHg 87%
    11:00 0°C° 0 mm 3 mps 749 mmHg 85%
    12:00 0°C° 0 mm 3 mps 749 mmHg 83%
    13:00 0°C° 0 mm 3 mps 750 mmHg 84%
    14:00 0°C° 0 mm 3 mps 750 mmHg 85%
    15:00 0°C° 0 mm 3 mps 751 mmHg 86%
    16:00 +1°C° 0 mm 2 mps 752 mmHg 87%
    17:00 +1°C° 0 mm 2 mps 752 mmHg 89%
    18:00 -1°C° 0 mm 2 mps 753 mmHg 90%
    19:00 -1°C° 0 mm 2 mps 753 mmHg 90%
    20:00 +1°C° 0 mm 1 mps 754 mmHg 90%
    21:00 +1°C° 0 mm 1 mps 754 mmHg 90%
    22:00 +1°C° 0 mm 1 mps 755 mmHg 90%
    23:00 0°C° 0 mm 0 mps 755 mmHg 90%

    Day after tomorrow, 24 January, Thursday

    Time Temperature Precipitation Wind Pressure Humidity
    00:00 0°C° 0 mm 0 mps 755 mmHg 90%
    01:00 0°C° 0 mm 0 mps 756 mmHg 90%
    02:00 +1°C° 0 mm 1 mps 756 mmHg 90%
    03:00 +1°C° 0 mm 1 mps 756 mmHg 90%
    04:00 +1°C° 0 mm 1 mps 756 mmHg 89%
    05:00 +1°C° 0 mm 1 mps 757 mmHg 88%
    06:00 +1°C° 0 mm 1 mps 757 mmHg 87%
    07:00 +1°C° 0 mm 1 mps 757 mmHg 86%
    08:00 -1°C° 0 mm 2 mps 757 mmHg 86%
    09:00 +1°C° 0 mm 2 mps 758 mmHg 86%
    10:00 +2°C° 0 mm 2 mps 758 mmHg 85%
    11:00 +3°C° 0 mm 2 mps 758 mmHg 85%
    12:00 +4°C° 0 mm 2 mps 758 mmHg 85%
    13:00 +3°C° 0.1 mm 2 mps 758 mmHg 86%
    14:00 +3°C° 0.1 mm 2 mps 758 mmHg 87%
    15:00 +3°C° 0.1 mm 2 mps 758 mmHg 88%
    16:00 +2°C° 0 mm 2 mps 759 mmHg 86%
    17:00 +1°C° 0 mm 2 mps 759 mmHg 85%
    18:00 -1°C° 0 mm 2 mps 759 mmHg 83%
    19:00 -1°C° 0 mm 2 mps 759 mmHg 83%
    20:00 -1°C° 0 mm 2 mps 760 mmHg 83%
    21:00 -1°C° 0 mm 2 mps 760 mmHg 83%
    22:00 -1°C° 0 mm 2 mps 760 mmHg 85%
    23:00 -1°C° 0 mm 3 mps 760 mmHg 86%

    25 January, Friday

    Time Temperature Precipitation Wind Pressure Humidity
    00:00 -1°C° 0 mm 3 mps 760 mmHg 88%
    01:00 -1°C° 0.2 mm 3 mps 759 mmHg 87%
    02:00 -1°C° 0.2 mm 3 mps 759 mmHg 87%
    03:00 -2°C° 0.2 mm 4 mps 759 mmHg 87%
    04:00 -1°C° 0.3 mm 3 mps 759 mmHg 89%
    05:00 0°C° 0.3 mm 3 mps 759 mmHg 91%
    06:00 +1°C° 0.3 mm 2 mps 760 mmHg 93%
    07:00 +1°C° 0.1 mm 2 mps 760 mmHg 94%
    08:00 +1°C° 0.1 mm 2 mps 760 mmHg 95%
    09:00 +1°C° 0.1 mm 2 mps 761 mmHg 96%
    10:00 +1°C° 0 mm 2 mps 761 mmHg 94%
    11:00 0°C° 0 mm 3 mps 761 mmHg 92%
    12:00 0°C° 0 mm 3 mps 761 mmHg 90%
    13:00 0°C° 0 mm 3 mps 762 mmHg 91%
    14:00 +1°C° 0 mm 2 mps 762 mmHg 91%
    15:00 +1°C° 0 mm 2 mps 762 mmHg 92%
    16:00 -1°C° 0 mm 2 mps 762 mmHg 93%
    17:00 -2°C° 0 mm 2 mps 763 mmHg 94%
    18:00 -2°C° 0 mm 2 mps 763 mmHg 95%
    19:00 -3°C° 0 mm 2 mps 763 mmHg 93%
    20:00 -3°C° 0 mm 2 mps 763 mmHg 91%
    21:00 -4°C° 0 mm 2 mps 764 mmHg 88%
    22:00 -4°C° 0 mm 2 mps 763 mmHg 87%
    23:00 -4°C° 0 mm 2 mps 763 mmHg 86%

    26 January, Saturday

    Time Temperature Precipitation Wind Pressure Humidity
    00:00 -4°C° 0 mm 2 mps 763 mmHg 85%
    01:00 -4°C° 0 mm 2 mps 763 mmHg 86%
    02:00 -4°C° 0 mm 2 mps 762 mmHg 87%
    03:00 -4°C° 0 mm 2 mps 762 mmHg 87%
    04:00 -4°C° 0 mm 2 mps 761 mmHg 87%
    05:00 -5°C° 0 mm 3 mps 761 mmHg 87%
    06:00 -4°C° 0 mm 3 mps 760 mmHg 87%
    07:00 -4°C° 0 mm 4 mps 760 mmHg 86%
    08:00 -4°C° 0 mm 4 mps 760 mmHg 84%
    09:00 -4°C° 0 mm 5 mps 760 mmHg 83%
    10:00 -4°C° 0 mm 5 mps 759 mmHg 82%
    11:00 -2°C° 0 mm 5 mps 758 mmHg 80%
    12:00 -2°C° 0 mm 6 mps 758 mmHg 78%
    13:00 -1°C° 0.1 mm 5 mps 757 mmHg 79%
    14:00 -2°C° 0.1 mm 5 mps 757 mmHg 80%
    15:00 -2°C° 0.1 mm 4 mps 756 mmHg 82%
    16:00 -2°C° 0.6 mm 4 mps 756 mmHg 86%
    17:00 -2°C° 0.6 mm 4 mps 756 mmHg 89%
    18:00 -2°C° 0.6 mm 4 mps 756 mmHg 93%
    19:00 -2°C° 0.6 mm 4 mps 756 mmHg 94%
    20:00 -1°C° 0.6 mm 3 mps 756 mmHg 94%
    21:00 -1°C° 0.6 mm 3 mps 756 mmHg 95%
    22:00 -1°C° 0.2 mm 3 mps 755 mmHg 95%
    23:00 -1°C° 0.2 mm 3 mps 755 mmHg 96%

    27 January, Sunday

    Time Temperature Precipitation Wind Pressure Humidity
    00:00 -1°C° 0.2 mm 2 mps 755 mmHg 96%
    01:00 -1°C° 0.1 mm 2 mps 755 mmHg 96%
    02:00 -1°C° 0.1 mm 2 mps 755 mmHg 96%
    03:00 +1°C° 0.1 mm 2 mps 754 mmHg 97%
    04:00 +1°C° 0 mm 2 mps 754 mmHg 95%
    05:00 +1°C° 0 mm 2 mps 754 mmHg 93%
    06:00 +1°C° 0 mm 2 mps 754 mmHg 92%
    07:00 +1°C° 0 mm 2 mps 754 mmHg 91%
    08:00 +1°C° 0 mm 2 mps 754 mmHg 90%
    09:00 +1°C° 0 mm 2 mps 753 mmHg 90%
    10:00 +1°C° 0 mm 2 mps 753 mmHg 92%
    11:00 +1°C° 0 mm 2 mps 753 mmHg 95%
    12:00 +2°C° 0 mm 2 mps 753 mmHg 98%
    13:00 +2°C° 0 mm 2 mps 752 mmHg 97%
    14:00 +1°C° 0 mm 3 mps 752 mmHg 96%
    15:00 0°C° 0 mm 3 mps 752 mmHg 96%
    16:00 0°C° 0.2 mm 3 mps 752 mmHg 95%
    17:00 +1°C° 0.2 mm 2 mps 752 mmHg 95%
    18:00 +1°C° 0.2 mm 2 mps 752 mmHg 95%
    19:00 0°C° 0.6 mm 3 mps 752 mmHg 95%
    20:00 0°C° 0.6 mm 3 mps 753 mmHg 95%
    21:00 0°C° 0.6 mm 3 mps 753 mmHg 95%
    22:00 0°C° 0.3 mm 3 mps 753 mmHg 96%
    23:00 +1°C° 0.3 mm 2 mps 753 mmHg 97%
    Show more